User: anonymous   Login
Location: Vancouver
(49.2500°N, 123.1330°W)
Time: 15:10:19
(UTC-07:00)
Language:

Cosmos 2333 Rocket - Orbit

View from above orbital plane
View from above orbital plane
View from above satellite
View from above satellite

Ground track
Ground track

The orbit data is extracted from the following two-line orbital elements,

1 24298U 96051B   17290.09956581 -.00000110  00000-0 -33120-4 0  9995
2 24298  70.8474 165.1926 0015243 350.8605   9.2236 14.12487415 89038
Epoch (UTC): 17 October 2017 02:23:22
Eccentricity: 0.0015243
inclination: 70.8474°
perigee height: 840 km
apogee height: 862 km
right ascension of ascending node: 165.1926°
argument of perigee: 350.8605°
revolutions per day: 14.12487415
mean anomaly at epoch: 9.2236°
orbit number at epoch: 8903

The dashed part of the orbit path shows where the satellite is in the earth's shadow,  

DLR